IGO2002 VOCB-VOBL

Flight info

Callsign IGO2002
Flight time 0h 32m
Altitude 21000
Route CCB W43 UGABA UGABA7E
Aircraft A20N/M-SDE2E3FGHIRWXY/LB1

Departure

Time 2026-05-07 06:51
Airport Coimbatore International Airport (VOCB)

Arrival

Time 2026-05-07 07:23
Airport Kempegowda International Airport Bengaluru (VOBL)
Time Latitude Longitude Altitude Speed Heading
2026-05-07 06:14 11.03022 77.04012 1323 ft 0 kts 316°
2026-05-07 06:40 11.03016 77.04018 1323 ft 2 kts 315°
2026-05-07 06:40 11.03005 77.04029 1323 ft 1 kts 316°
2026-05-07 06:40 11.02998 77.04036 1323 ft 2 kts 310°
2026-05-07 06:41 11.02991 77.04049 1322 ft 2 kts 288°
2026-05-07 06:41 11.02988 77.04064 1322 ft 2 kts 269°
2026-05-07 06:41 11.02990 77.04079 1321 ft 2 kts 250°
2026-05-07 06:41 11.02997 77.04093 1321 ft 1 kts 232°
2026-05-07 06:42 11.03002 77.04098 1320 ft 1 kts 223°
2026-05-07 06:42 11.03004 77.04100 1320 ft 0 kts 225°
2026-05-07 06:46 11.02995 77.04092 1321 ft 3 kts 226°
2026-05-07 06:46 11.02972 77.04067 1322 ft 5 kts 225°
2026-05-07 06:46 11.02930 77.04067 1323 ft 8 kts 139°
2026-05-07 06:47 11.02866 77.04117 1322 ft 14 kts 166°
2026-05-07 06:47 11.02778 77.04051 1324 ft 18 kts 227°
2026-05-07 06:47 11.02685 77.03954 1329 ft 19 kts 225°
2026-05-07 06:47 11.02584 77.03850 1334 ft 21 kts 225°
2026-05-07 06:48 11.02473 77.03733 1336 ft 24 kts 226°
2026-05-07 06:48 11.02344 77.03619 1337 ft 24 kts 207°
2026-05-07 06:48 11.02227 77.03562 1337 ft 14 kts 230°
2026-05-07 06:48 11.02238 77.03495 1337 ft 9 kts 350°
2026-05-07 06:49 11.02287 77.03541 1337 ft 10 kts 49°
2026-05-07 06:49 11.02294 77.03548 1337 ft 0 kts 46°
2026-05-07 06:50 11.02337 77.03593 1337 ft 25 kts 46°
2026-05-07 06:50 11.02626 77.03893 1333 ft 93 kts 46°
2026-05-07 06:50 11.03226 77.04514 1305 ft 152 kts 45°
2026-05-07 06:50 11.04036 77.05360 1584 ft 173 kts 45°
2026-05-07 06:51 11.04896 77.06255 2038 ft 182 kts 47°
2026-05-07 06:51 11.05746 77.07262 2516 ft 194 kts 50°
2026-05-07 06:51 11.06632 77.08330 3087 ft 203 kts 48°
2026-05-07 06:51 11.07620 77.09380 3604 ft 214 kts 43°
2026-05-07 06:52 11.08873 77.10303 4066 ft 231 kts 21°
2026-05-07 06:52 11.10423 77.10708 4815 ft 235 kts
2026-05-07 06:52 11.12030 77.10906 5616 ft 237 kts
2026-05-07 06:52 11.13674 77.11037 6424 ft 238 kts
2026-05-07 06:53 11.15302 77.11156 7221 ft 239 kts
2026-05-07 06:53 11.16966 77.11298 8003 ft 241 kts
2026-05-07 06:53 11.18642 77.11465 8530 ft 254 kts
2026-05-07 06:53 11.20457 77.11769 8950 ft 272 kts 11°
2026-05-07 06:54 11.22359 77.12133 9410 ft 287 kts 11°
2026-05-07 06:54 11.24326 77.12509 10119 ft 292 kts 11°
2026-05-07 06:54 11.26351 77.12891 10706 ft 302 kts 11°
2026-05-07 06:54 11.28464 77.13285 11213 ft 314 kts 10°
2026-05-07 06:55 11.30603 77.13680 11911 ft 318 kts 10°
2026-05-07 06:55 11.32777 77.14079 12634 ft 321 kts 10°
2026-05-07 06:55 11.34981 77.14483 13360 ft 323 kts 10°
2026-05-07 06:55 11.37185 77.14886 14071 ft 326 kts 11°
2026-05-07 06:56 11.39422 77.15295 14775 ft 329 kts 11°
2026-05-07 06:56 11.41089 77.15599 15290 ft 331 kts 11°
2026-05-07 06:56 11.43354 77.16012 15976 ft 334 kts 11°
2026-05-07 06:56 11.45636 77.16428 16647 ft 337 kts 11°
2026-05-07 06:57 11.47967 77.16855 17312 ft 340 kts 11°
2026-05-07 06:57 11.50281 77.17278 17958 ft 343 kts 11°
2026-05-07 06:57 11.52636 77.17709 18596 ft 346 kts 11°
2026-05-07 06:57 11.54990 77.18140 19215 ft 349 kts 11°
2026-05-07 06:58 11.57385 77.18578 19835 ft 352 kts 11°
2026-05-07 06:58 11.59831 77.19025 20450 ft 356 kts 11°
2026-05-07 06:58 11.62264 77.19471 20822 ft 358 kts 11°
2026-05-07 06:58 11.64754 77.19927 20897 ft 358 kts 11°
2026-05-07 06:59 11.67218 77.20378 20900 ft 357 kts 11°
2026-05-07 06:59 11.69673 77.20828 20902 ft 357 kts 11°
2026-05-07 06:59 11.72143 77.21281 20903 ft 357 kts 11°
2026-05-07 06:59 11.74556 77.21722 20906 ft 357 kts 12°
2026-05-07 07:00 11.77004 77.22171 20911 ft 357 kts 12°
2026-05-07 07:00 11.79463 77.22621 20917 ft 357 kts 12°
2026-05-07 07:00 11.81879 77.23064 20923 ft 357 kts 11°
2026-05-07 07:00 11.84348 77.23517 20931 ft 358 kts 11°
2026-05-07 07:01 11.86780 77.23962 20938 ft 358 kts 11°
2026-05-07 07:01 11.89239 77.24413 20944 ft 358 kts 12°
2026-05-07 07:01 11.91701 77.24865 20948 ft 358 kts 12°
2026-05-07 07:01 11.94131 77.25311 20951 ft 358 kts 12°
2026-05-07 07:02 11.96581 77.25761 20953 ft 358 kts 12°
2026-05-07 07:02 11.99045 77.26213 20954 ft 358 kts 12°
2026-05-07 07:02 12.01466 77.26657 20955 ft 358 kts 12°
2026-05-07 07:02 12.03909 77.27106 20955 ft 358 kts 11°
2026-05-07 07:03 12.06347 77.27554 20956 ft 358 kts 12°
2026-05-07 07:03 12.08797 77.28004 20956 ft 358 kts 12°
2026-05-07 07:03 12.11236 77.28451 20956 ft 358 kts 12°
2026-05-07 07:03 12.13700 77.28970 20956 ft 357 kts 15°
2026-05-07 07:04 12.16106 77.29678 20956 ft 356 kts 20°
2026-05-07 07:04 12.18423 77.30561 20955 ft 356 kts 22°
2026-05-07 07:04 12.20724 77.31511 20954 ft 356 kts 23°
2026-05-07 07:04 12.23037 77.32475 20953 ft 356 kts 23°
2026-05-07 07:05 12.25306 77.33422 20953 ft 356 kts 23°
2026-05-07 07:05 12.27590 77.34374 20953 ft 356 kts 23°
2026-05-07 07:05 12.29877 77.35326 20955 ft 356 kts 23°
2026-05-07 07:05 12.32187 77.36288 20958 ft 356 kts 23°
2026-05-07 07:06 12.34484 77.37244 20963 ft 356 kts 23°
2026-05-07 07:06 12.36797 77.38206 20968 ft 356 kts 23°
2026-05-07 07:06 12.39087 77.39159 20974 ft 356 kts 23°
2026-05-07 07:06 12.41397 77.40121 20979 ft 356 kts 23°
2026-05-07 07:07 12.43671 77.41067 20982 ft 355 kts 23°
2026-05-07 07:07 12.45953 77.42017 20756 ft 350 kts 23°
2026-05-07 07:07 12.48179 77.42945 20249 ft 349 kts 23°
2026-05-07 07:07 12.50429 77.43883 19871 ft 349 kts 23°
2026-05-07 07:08 12.52674 77.44819 19495 ft 348 kts 23°
2026-05-07 07:08 12.54902 77.45747 19121 ft 347 kts 22°
2026-05-07 07:08 12.57122 77.46672 18746 ft 345 kts 22°
2026-05-07 07:08 12.59348 77.47600 18368 ft 343 kts 22°
2026-05-07 07:09 12.61556 77.48519 17991 ft 342 kts 22°
2026-05-07 07:09 12.63775 77.49443 17611 ft 340 kts 22°
2026-05-07 07:09 12.65957 77.50352 17235 ft 338 kts 22°
2026-05-07 07:09 12.68145 77.51264 16856 ft 337 kts 22°
2026-05-07 07:10 12.70299 77.52162 16482 ft 335 kts 22°
2026-05-07 07:10 12.72430 77.53051 16109 ft 333 kts 22°
2026-05-07 07:10 12.74568 77.53943 15733 ft 332 kts 22°
2026-05-07 07:10 12.76715 77.54839 15354 ft 330 kts 22°
2026-05-07 07:11 12.78809 77.55713 14980 ft 326 kts 22°
2026-05-07 07:11 12.80889 77.56581 14614 ft 321 kts 22°
2026-05-07 07:11 12.82927 77.57432 14379 ft 312 kts 22°
2026-05-07 07:11 12.84917 77.58263 14149 ft 304 kts 22°
2026-05-07 07:12 12.86835 77.59064 13921 ft 296 kts 22°
2026-05-07 07:12 12.88728 77.59828 13723 ft 287 kts 17°
2026-05-07 07:12 12.90641 77.60206 13542 ft 279 kts
2026-05-07 07:12 12.92528 77.60126 13357 ft 271 kts 346°
2026-05-07 07:13 12.94178 77.59250 13075 ft 270 kts 319°
2026-05-07 07:13 12.95481 77.57854 12685 ft 271 kts 313°
2026-05-07 07:13 12.96728 77.56400 12286 ft 272 kts 313°
2026-05-07 07:13 12.97984 77.54945 11886 ft 273 kts 313°
2026-05-07 07:14 12.99244 77.53507 11487 ft 273 kts 314°
2026-05-07 07:14 13.00518 77.52071 11088 ft 274 kts 314°
2026-05-07 07:14 13.01802 77.50632 10688 ft 274 kts 314°
2026-05-07 07:14 13.03092 77.49191 10288 ft 275 kts 314°
2026-05-07 07:15 13.04383 77.47753 9889 ft 275 kts 314°
2026-05-07 07:15 13.05677 77.46311 9490 ft 276 kts 314°
2026-05-07 07:15 13.06974 77.44865 9091 ft 275 kts 314°
2026-05-07 07:15 13.08241 77.43452 8672 ft 266 kts 314°
2026-05-07 07:16 13.09493 77.42060 8167 ft 267 kts 315°
2026-05-07 07:16 13.10979 77.40994 7669 ft 259 kts 346°
2026-05-07 07:16 13.12731 77.40949 7279 ft 255 kts 15°
2026-05-07 07:16 13.14295 77.41752 6869 ft 252 kts 45°
2026-05-07 07:17 13.15402 77.43116 6482 ft 250 kts 56°
2026-05-07 07:17 13.16350 77.44599 6087 ft 249 kts 58°
2026-05-07 07:17 13.17251 77.46076 5962 ft 238 kts 59°
2026-05-07 07:17 13.18112 77.47501 5960 ft 230 kts 59°
2026-05-07 07:18 13.18923 77.48847 5951 ft 215 kts 59°
2026-05-07 07:18 13.19692 77.50124 5952 ft 208 kts 59°
2026-05-07 07:18 13.20393 77.51373 5940 ft 198 kts 69°
2026-05-07 07:18 13.20743 77.52728 5936 ft 197 kts 83°
2026-05-07 07:19 13.20845 77.54125 5747 ft 197 kts 88°
2026-05-07 07:19 13.20852 77.55521 5484 ft 196 kts 90°
2026-05-07 07:19 13.20832 77.56918 5245 ft 192 kts 91°
2026-05-07 07:19 13.20814 77.58151 5059 ft 177 kts 90°
2026-05-07 07:20 13.20804 77.58924 4879 ft 174 kts 90°
2026-05-07 07:20 13.20792 77.60179 4662 ft 175 kts 90°
2026-05-07 07:20 13.20781 77.61396 4414 ft 165 kts 90°
2026-05-07 07:20 13.20772 77.62521 4166 ft 152 kts 90°
2026-05-07 07:21 13.20763 77.63573 3965 ft 147 kts 90°
2026-05-07 07:21 13.20753 77.64623 3803 ft 147 kts 90°
2026-05-07 07:21 13.20746 77.65667 3607 ft 146 kts 91°
2026-05-07 07:21 13.20735 77.66715 3402 ft 146 kts 90°
2026-05-07 07:22 13.20724 77.67763 3203 ft 146 kts 91°
2026-05-07 07:22 13.20715 77.68803 3026 ft 145 kts 90°
2026-05-07 07:22 13.20706 77.69725 2997 ft 107 kts 90°
2026-05-07 07:22 13.20702 77.70320 2988 ft 62 kts 91°
2026-05-07 07:23 13.20629 77.70562 2981 ft 13 kts 119°
2026-05-07 07:23 13.20596 77.70622 2979 ft 9 kts 120°
2026-05-07 07:23 13.20569 77.70669 2976 ft 6 kts 122°
2026-05-07 07:23 13.20543 77.70711 2974 ft 6 kts 122°
2026-05-07 07:24 13.20526 77.70747 2972 ft 4 kts 105°
2026-05-07 07:24 13.20528 77.70794 2970 ft 9 kts 86°
2026-05-07 07:24 13.20530 77.70846 2967 ft 3 kts 92°
2026-05-07 07:24 13.20529 77.70867 2965 ft 4 kts 93°
2026-05-07 07:25 13.20525 77.70943 2961 ft 3 kts 90°
2026-05-07 07:25 13.20525 77.70988 2958 ft 9 kts 90°
2026-05-07 07:25 13.20525 77.71067 2953 ft 11 kts 90°
2026-05-07 07:26 13.20524 77.71139 2949 ft 8 kts 100°
2026-05-07 07:26 13.20476 77.71175 2949 ft 8 kts 180°
2026-05-07 07:26 13.20429 77.71175 2952 ft 4 kts 180°
2026-05-07 07:26 13.20410 77.71175 2953 ft 0 kts 180°
2026-05-07 07:27 13.20409 77.71175 2953 ft 1 kts 180°
2026-05-07 07:27 13.20383 77.71175 2955 ft 5 kts 179°
2026-05-07 07:27 13.20346 77.71175 2957 ft 4 kts 179°
2026-05-07 07:27 13.20318 77.71175 2958 ft 5 kts 180°
2026-05-07 07:28 13.20290 77.71171 2960 ft 2 kts 201°
2026-05-07 07:28 13.20273 77.71158 2961 ft 3 kts 263°
2026-05-07 07:28 13.20275 77.71146 2961 ft 0 kts 278°
2026-05-07 07:29 13.20278 77.71124 2962 ft 5 kts 275°
2026-05-07 07:29 13.20279 77.71098 2963 ft 5 kts 269°
2026-05-07 07:29 13.20278 77.71046 2965 ft 8 kts 270°
2026-05-07 07:29 13.20279 77.70985 2966 ft 7 kts 271°
2026-05-07 07:30 13.20279 77.70936 2968 ft 6 kts 269°
2026-05-07 07:30 13.20281 77.70900 2970 ft 4 kts 301°
2026-05-07 07:30 13.20319 77.70894 2969 ft 7 kts
2026-05-07 07:30 13.20347 77.70894 2969 ft 2 kts 360°
2026-05-07 07:31 13.20355 77.70894 2968 ft 0 kts 360°